Tracking 19193 objects as of 22-Jun-2018
HD Live streaming from Space Station
objects crossing your sky now

COSMOS 2177 (GLONASS)

Track COSMOS 2177 (GLONASS) now!
COSMOS 2177 (GLONASS) is classified as:


NORAD ID: 21853
Int'l Code: 1992-005A
Perigee: 19,111.8 km
Apogee: 19,162.3 km
Inclination: 64.0 °
Period: 675.7 minutes
Semi major axis: 25508 km
RCS: 2.3204 m2 (large)
Launch date: January 29, 1992
Source: Commonwealth of Independent States (former USSR) (CIS)
Launch site: TYURATAM MISSILE AND SPACE COMPLEX (TTMTR)
SV:
aabbcc
Your satellite tracking list
Your tracking list is empty




NASA's NSSDC Master Catalog

Two Line Element Set (TLE):
1 21853U 92005A   18173.22890653  .00000098  00000-0  00000+0 0  9996
2 21853  64.0404 170.4694 0009902 198.3099 278.2590  2.13101892205455
Source of the keplerian elements: AFSPC